Regional Weather Roundup
Issued by NWS

Home | Current Version | Previous Version | Text Only | Print | Product List | Glossary On
Versions: 1 2 3 4 5 6 7 8 9 10 11 12 13 14 15 16 17 18 19 20 21 22 23 24 25 26 27 28 29 30 31 32 33 34 35 36 37 38 39 40 41 42 43 44 45 46 47 48 49 50
000
ASUS43 KDMX 040408
RWRIA

WEATHER ROUNDUP FOR IOWA
NATIONAL WEATHER SERVICE DES MOINES IA
1100 PM CDT TUE MAY 03 2016

NOTE: "FAIR" INDICATES FEW OR NO CLOUDS BELOW 12,000 FEET WITH NO
SIGNIFICANT WEATHER AND/OR OBSTRUCTIONS TO VISIBILITY.

* - THESE STATIONS ARE NOT NWS STATIONS...THUS NOT UNDER NWS
QUALITY CONTROL.  THEY ALSO DO NOT REPORT WEATHER SUCH
AS PRECIPITATION OR FOG.

IAZ001>003-012>014-020>022-031>034-043>046-040500-
   NORTHWEST IOWA

CITY           SKY/WX    TMP DP  RH WIND       PRES   REMARKS
CARROLL *      CLOUDY    59  46  63 W15       29.81R
CHEROKEE *     CLEAR     56  34  42 N9        29.85R
DENISON *      MOCLDY    59  45  58 W13       29.82R
LE MARS *      CLEAR     59  37  44 N9        29.88R
ORANGE CITY *  CLEAR     57  36  44 N7        29.87R
SHELDON *      CLEAR     54  36  50 N12       29.85R
SIOUX CITY     CLEAR     59  46  62 NW13      29.87R
SPENCER        CLEAR     54  34  46 N15       29.82R
STORM LAKE *   PTCLDY    57  36  44 NW13G18   29.84R
$$

IAZ055>058-069>071-079>083-090>094-040500-
   SOUTHWEST IOWA

CITY           SKY/WX    TMP DP  RH WIND       PRES   REMARKS
ATLANTIC *     CLOUDY    57  45  62 W10       29.83S
AUDUBON *      MOCLDY    57  46  67 W5        29.83S
CLARINDA *       N/A    N/A N/A N/A MISG        N/A
COUNCIL BLFS * MOCLDY    59  45  58 W8        29.85F
CRESTON *      PTCLDY    54  45  71 W9        29.83F
HARLAN  *      MOCLDY    57  46  67 W12       29.86F
LAMONI         CLEAR     57  44  62 SW13      29.83F
RED OAK *      CLEAR     59  45  58 W9        29.85F
SHENANDOAH *   CLEAR     55  48  76 SW9       29.87F
$$

IAZ047>049-059>061-072>074-084-040500-
   CENTRAL IOWA

CITY           SKY/WX    TMP DP  RH WIND       PRES   REMARKS
AMES           CLOUDY    59  47  64 W13       29.75F
ANKENY *       CLOUDY    61  46  59 W9        29.76F
BOONE *        CLOUDY    61  46  59 W16       29.76S
CHARITON *     PTCLDY    57  45  62 SW10      29.79F
DES MOINES     LGT RAIN  59  46  62 W10       29.78F
GRINNELL*      LGT RAIN  57  48  72 SW10      29.74F
KNOXVILLE *    CLOUDY    59  45  58 SW12G18   29.76F
MARSHALLTOWN   CLOUDY    57  47  69 W16       29.71F
NEWTON *       CLOUDY    57  46  67 SW8       29.75F
PELLA *        LGT RAIN  59  45  58 W7        29.77F
PERRY *        CLOUDY    59  48  67 W12       29.79S
$$

IAZ004>006-015-016-023>025-035-036-040500-
   NORTH CENTRAL IOWA

CITY           SKY/WX    TMP DP  RH WIND       PRES   REMARKS
ALGONA *       CLEAR     57  34  41 NW15G22   29.78R
CLARION *      CLEAR     57  34  41 NW16      29.75R
ESTHERVILLE    CLEAR     54  34  46 N18       29.80R
FORT DODGE *   MOCLDY    61  39  44 NW7       29.79S
MASON CITY     CLEAR     56  35  45 N14       29.74R
FOREST CITY *  CLEAR     57  32  38 NW13G22   29.74R
WEBSTER CITY * MOCLDY    59  46  63 NW17G23   29.75S
IOWA FALLS *     N/A     59  46  63 W18G25    29.73F
$$

IAZ007>011-017>019-026>030-037>042-050>054-066-040500-
   NORTHEAST IOWA

CITY           SKY/WX    TMP DP  RH WIND       PRES   REMARKS
CEDAR RAPIDS   CLOUDY    57  47  69 SW13      29.69F
CHARLES CITY * CLEAR     59  41  51 NW15      29.69R
CLINTON *      MOCLDY    57  45  64 SW16      29.69F
DECORAH *      CLOUDY    52  48  87 CALM      29.67F
DUBUQUE        TSTM      52  48  86 N25G36    29.71R FOG
MONTICELLO *   CLOUDY    59  46  63 W10       29.67F
OELWEIN *      PTCLDY    59  46  63 W15G21    29.66F
$$

IAZ064-065-067-068-078-040500-
   EAST CENTRAL IOWA

CITY           SKY/WX    TMP DP  RH WIND       PRES   REMARKS
DAVENPORT      PTCLDY    58  43  57 SW14      29.70F
IOWA CITY      PTCLDY    58  45  62 SW12      29.73F
MT. PLEASANT * PTCLDY    59  46  63 SW12      29.76F
MUSCATINE *    CLEAR     59  43  55 SW13      29.72F
QUAD CITIES    PTCLDY    59  42  53 SW12      29.70F
$$

IAZ062-063-075>077-085>089-095>099-040500-
   SOUTHEAST IOWA

CITY           SKY/WX    TMP DP  RH WIND       PRES   REMARKS
BURLINGTON     CLOUDY    57  45  64 SW12      29.76F
FAIRFIELD *    CLEAR     57  45  62 SW12G17   29.76F
FORT MADISON * CLOUDY    57  45  62 SW10      29.78F
KEOKUK *       CLOUDY    59  45  58 SW10      29.79F
OSKALOOSA *      N/A     57  45  62 SW15      29.76F
OTTUMWA        CLEAR     57  44  62 SW17      29.76F
WASHINGTON *   CLEAR     57  46  67 SW13      29.75F
$$

ABBREVIATIONS USED IN REMARKS
   TC - TEMPERATURES IN CELSIUS
  WCI - WIND CHILL INDEX
   HX - HEAT INDEX
  VSB - VISIBILITY
$$





USA.gov is the U.S. government's official web portal to all federal, state and local government web resources and services.